Location: Les Gen�tes
(46.3104°N, 1.5969°E)
Time: 10:24:19
(UTC+00:00)

Cosmos 1975 Rocket - Pass Details

Date: 01 June 2020
Orbit: 603 x 634 km, 82.5° (Epoch: 07 July)

Event Time Altitude Azimuth Distance (km) Brightness Sun altitude
Exits shadow 21:44:36 26° 172° (S) 1,248 4.1 -15.7°
Maximum altitude 21:47:02 67° 96° (E) 682 3.1 -15.9°
Drops below altitude 10° 21:51:26 10° 14° (NNE) 1,998 6.3 -16.3°
Sets 21:53:40 0° 12° (NNE) 2,903 7.3 -16.5°
